Location: ????????
(55.7963°N, 38.0234°E)
Time: 20:45:08
(UTC+00:00)

Daily predictions for brighter satellites

Satellite Brightness Start Highest point End
(mag) Time Altitude Azimuth Time Altitude Azimuth Time Altitude Azimuth
Cosmos 1869 Rocket 3.7 19:10:58 10° NNW 19:15:23 79° W 19:19:43 10° S
Cosmos 540 Rocket 3.9 19:11:26 10° NNW 19:16:30 56° NE 19:21:31 10° SE
Cosmos 2263 Rocket 2.3 19:11:34 10° SSW 19:17:11 66° ESE 19:22:51 10° NE
Cosmos 921 Rocket 4.1 19:13:06 10° SW 19:17:17 49° WNW 19:21:35 10° NNE
Cosmos 1703 4.3 19:14:52 10° SE 19:17:45 24° E 19:20:38 10° NE
Cosmos 2227 Rocket 2.5 19:12:20 10° SW 19:17:59 78° NW 19:23:42 10° NNE
Ariane Rocket 3.7 19:15:23 10° S 19:20:19 51° W 19:25:18 10° NNW
NOSS 3-1 (A) 4.1 19:13:44 10° NW 19:20:21 78° NE 19:28:36 10° ESE
SL-4 R/B 3.1 19:17:10 10° SSW 19:20:25 22° SSE 19:23:37 10° E
PSLV R/B 4.4 19:17:23 10° S 19:20:32 40° W 19:23:40 10° NNW
NOSS 2-1 (C) 3.6 19:21:46 10° NW 19:24:53 53° NNE 19:28:43 10° ESE
Cosmos 2233 Rocket 4.2 19:18:59 10° NNW 19:25:20 78° W 19:31:39 10° S
Okean 1-7 4.5 19:23:09 10° SE 19:26:18 22° E 19:29:29 10° NE
Cosmos 1943 3.4 19:23:42 10° NW 19:29:25 74° WSW 19:35:05 10° SSE
ATLAS 2AS CENTAUR R/B 4.4 19:26:28 10° SE 19:29:42 14° ESE 19:32:53 10° ENE
ALOS 2 4.2 19:26:04 10° ESE 19:29:42 26° ENE 19:33:21 10° N
ASTEX 1 4.2 19:25:42 10° NNE 19:30:18 37° E 19:34:52 10° SSE
NOSS 2-1 (E) 3.6 19:29:28 10° NW 19:32:38 55° NNE 19:36:33 10° ESE
Cosmos 1818 4.0 19:27:54 10° WSW 19:33:21 71° NW 19:38:50 10° NE
Cosmos 2292 Rocket 3.5 19:31:25 10° SSE 19:34:04 33° E 19:36:51 10° NNE
Meteor 1-23 Rocket 4.4 19:28:53 10° SSW 19:34:28 77° WNW 19:40:10 10° NNE
Okean O Rocket 4.3 19:33:29 10° WSW 19:35:00 12° W 19:36:30 10° WNW
Cosmos 1269 Rocket 4.0 19:35:50 10° SSW 19:41:06 80° ESE 19:46:26 10° NNE
Cosmos 468 Rocket 4.3 19:36:03 10° NNW 19:41:12 63° ENE 19:46:17 10° SE
RESURS DK-1 3.0 19:37:34 10° SW 19:41:32 59° NW 19:45:32 10° NNE
COBE Rocket 4.0 19:36:45 10° NNE 19:41:50 71° ESE 19:46:45 10° S
Meteor 2-16 Rocket 4.5 19:36:59 10° S 19:43:03 82° E 19:49:12 10° NNE
Meteor 1-21 4.4 19:37:48 10° SSW 19:43:33 81° WNW 19:49:22 10° NNE
Okean 2 3.3 19:41:29 10° S 19:45:22 69° E 19:49:16 10° NNE
DELTA 2 DEB (DPAF) 4.0 19:41:34 10° NNE 19:45:26 56° ESE 19:49:16 10° S
Cosmos 1862 Rocket 4.1 19:42:38 10° SSE 19:46:51 46° E 19:51:04 10° NNE
Cosmos 1953 3.2 19:43:25 10° NNW 19:46:58 41° W 19:50:30 10° SSW
Cosmos 2219 3.3 19:41:46 10° SSW 19:47:32 87° ESE 19:53:21 10° NE
Cosmos 1892 2.8 19:46:24 11° SSE 19:49:02 36° E 19:51:51 10° NNE
IRIDIUM 114 4.4 19:43:59 10° S 19:49:10 69° E 19:54:23 10° N
SeaSat 1 3.9 19:44:56 10° E 19:49:18 33° NE 19:53:40 10° NNW
USA 290 2.3 19:46:11 10° SSW 19:49:23 79° WNW 19:52:37 10° NNE
Cosmos 1603 3.7 19:44:56 10° NW 19:50:35 87° WSW 19:56:13 10° SSE
USA 59 Rocket -0.4 19:48:38 10° NW 19:51:53 83° NE 19:56:04 10° SE
Spot 4 4.5 19:47:55 10° SE 19:52:34 49° ENE 19:57:14 10° N
SJ 16-02 3.5 19:52:40 10° ESE 19:53:59 11° E 19:55:20 10° ENE
Cosmos 2082 3.7 19:49:02 10° SSW 19:54:45 79° ESE 20:00:31 10° NE
USA 305 2.1 19:51:09 10° WSW 19:54:51 66° S 19:57:46 10° E
IRIDIUM 103 4.4 19:53:05 10° S 19:58:18 80° E 20:03:33 10° N
CZ-4C R/B 3.4 19:55:25 10° NNE 19:58:32 41° E 20:01:23 12° S
Cosmos 1763 Rocket 3.7 19:58:40 10° NNW 20:03:47 62° WSW 20:08:33 11° S
CZ-2C R/B 4.2 20:03:08 10° NNE 20:07:32 47° E 20:11:43 11° S
USA 307 3.7 20:05:58 10° SSW 20:08:47 22° SE 20:11:51 10° E
Geosat 4.0 20:04:25 10° NE 20:09:27 69° ESE 20:14:26 10° SSW
ARIANE 5 R/B 2.7 20:08:51 12° SSE 20:12:59 88° E 20:17:32 10° NNW
Okean 3 3.7 20:09:58 10° SSW 20:14:01 66° WNW 20:18:06 10° N
USA 229 DEB 4.4 20:08:58 10° NW 20:15:56 62° NNE 20:23:44 10° ESE
USA 229 4.4 20:09:05 10° NW 20:16:02 62° NNE 20:23:49 10° ESE
Cosmos 2227 4.4 20:10:45 10° SSW 20:16:13 55° ESE 20:21:42 10° NE
IRIDIUM 106 4.5 20:11:24 10° S 20:16:38 77° W 20:21:53 10° N
MetOp-A 3.7 20:13:45 12° SSE 20:18:06 82° WSW 20:22:28 10° NNW
DNEPR-1 R/B 4.2 20:16:33 10° WSW 20:22:03 71° NW 20:26:40 10° NE
SL-24 R/B - RUBIN 2 4.5 20:18:57 10° NW 20:24:10 57° NNE 20:28:48 10° ESE
Cosmos 1844 Rocket 3.0 20:20:18 10° S 20:25:45 52° ESE 20:31:16 10° NE
Cosmos 1140 Rocket 3.9 20:23:40 10° SW 20:28:46 65° WNW 20:33:53 10° NNE
Cosmos 1782 Rocket 4.2 20:27:46 10° N 20:32:06 50° ENE 20:36:05 12° SSE
Cosmos 1703 Rocket 4.1 20:31:00 14° SSE 20:34:31 45° E 20:38:39 10° NNE
Cosmos 1606 4.0 20:33:48 10° NNE 20:36:20 23° ENE 20:38:52 10° ESE
Cosmos 1844 3.8 20:34:26 10° SSW 20:39:52 57° ESE 20:45:19 10° NE
Cosmos 1707 Rocket 3.9 20:35:49 10° SSW 20:40:04 60° WNW 20:44:22 10° N
Aureole 3 Rocket 3.4 20:38:33 10° NNW 20:41:34 40° W 20:44:47 12° SSW
Cosmos 1271 Rocket 2.7 20:39:23 15° S 20:42:18 61° E 20:45:53 10° NNE
NOSS 2-1 (D) 3.6 20:41:33 10° WNW 20:44:47 44° SW 20:48:13 14° SSE
Cosmos 2228 Rocket 3.5 20:41:22 10° SSW 20:45:46 60° WNW 20:50:09 10° N
ATLAS 3B R/B 3.2 20:43:59 10° NW 20:51:57 82° NE 20:59:42 10° SE
Cosmos 1703 4.4 20:48:46 10° SW 20:51:58 33° WNW 20:55:12 10° N
Cosmos 676 Rocket 4.4 20:51:57 14° S 20:56:22 49° ESE 21:01:24 10° NE
SL-4 R/B 2.3 20:53:56 10° WSW 20:57:51 43° S 21:01:37 10° E
Cosmos 407 Rocket 3.9 20:55:22 10° SW 21:00:26 63° WNW 21:05:32 10° NNE
Cosmos 2263 Rocket 3.7 20:56:12 10° WSW 21:01:29 38° NW 21:06:48 10° NNE
Cosmos 2227 Rocket 4.4 20:58:08 10° W 21:02:55 27° NNW 21:07:44 10° NNE
Okean 1-7 3.5 20:59:01 10° SSW 21:03:04 53° WNW 21:07:09 10° N
Cosmos 1833 Rocket 2.8 20:58:57 10° NNW 21:04:37 76° NE 21:10:14 10° SE
ALOS 2 3.0 21:02:11 14° S 21:05:47 56° W 21:10:08 10° NNW
Cosmos 2279 Rocket 4.4 20:59:57 10° N 21:06:04 58° ENE 21:12:03 11° SSE
Meteor 1-24 Rocket 4.0 21:01:26 13° S 21:06:41 68° E 21:12:29 10° NNE
ASTEX 1 4.4 21:04:34 10° N 21:09:14 41° WNW 21:13:50 10° SW
Tsikada Rocket 4.2 21:04:34 14° S 21:10:01 67° E 21:16:17 10° NNE
Cosmos 1908 Rocket 4.2 21:06:08 10° NNW 21:10:18 46° W 21:13:54 14° SSW
NOSS 3-1 (A) 4.5 21:04:32 10° WNW 21:11:09 44° SW 21:18:18 13° S
NOSS 2-1 (C) 4.3 21:10:47 10° WNW 21:13:50 29° SW 21:16:32 15° S
Cosmos 1328 4.0 21:12:30 16° SSE 21:15:09 49° E 21:18:39 10° NNE
Cosmos 1954 Rocket 4.0 21:12:51 11° SSW 21:17:53 84° ESE 21:23:07 10° NNE
Cosmos 371 Rocket 4.4 21:14:55 14° SSE 21:18:26 32° ESE 21:22:43 10° NE
ATLAS 2AS CENTAUR R/B 3.1 21:12:28 11° SSW 21:19:08 50° SE 21:25:45 10° NE
Cosmos 2251 Rocket 3.9 21:15:21 10° SW 21:20:40 67° WNW 21:26:04 10° NNE
Cosmos 2034 Rocket 4.4 21:15:17 10° NNW 21:21:20 55° W 21:26:51 13° SSW
NOSS 2-1 (E) 4.3 21:18:37 10° WNW 21:21:41 28° SW 21:24:24 15° S
Cosmos 841 Rocket 3.9 21:17:00 10° NW 21:22:05 50° WSW 21:26:17 15° S
Cosmos 2242 Rocket 4.4 21:18:50 14° SSE 21:22:22 40° E 21:26:31 10° NNE
USA 305 1.8 21:20:01 10° W 21:23:17 54° SSW 21:25:38 10° ESE
Cosmos 1190 Rocket 4.2 21:19:24 10° SSW 21:24:41 75° WNW 21:29:58 10° NNE
SeaSat 1 2.5 21:21:53 12° SSE 21:26:26 71° WSW 21:31:21 10° NW
Landsat 5 4.1 21:22:26 10° N 21:26:37 54° WNW 21:30:39 10° SW
H-2A R/B 3.5 21:27:37 10° SE 21:30:56 35° ENE 21:34:17 10° N
SJ 16-02 1.3 21:27:45 15° SSW 21:31:20 70° ESE 21:35:39 10° NNE
Meteor 2-5 Rocket 3.9 21:27:41 13° SSW 21:33:03 88° W 21:39:02 10° NNE
USA 307 2.7 21:34:39 10° WSW 21:38:19 53° SSE 21:42:13 10° E
Cosmos 1814 Rocket 4.1 21:33:59 10° NNW 21:39:22 82° ENE 21:44:43 10° SSE
CZ-2C R/B 3.3 21:34:56 10° SE 21:40:03 53° ENE 21:45:17 10° N
USA 59 Rocket 1.5 21:38:00 10° W 21:40:39 19° SW 21:42:43 14° SSW
Cosmos 2082 Rocket 3.2 21:35:31 10° NNW 21:41:02 48° NE 21:46:33 10° ESE
Cosmos 1943 Rocket 4.0 21:39:21 10° SE 21:42:57 18° E 21:46:34 10° ENE
Cosmos 1300 Rocket 4.4 21:40:11 10° NNW 21:44:19 40° W 21:47:47 14° SSW
Cosmos 1850 Rocket 4.4 21:40:56 14° S 21:45:05 50° ESE 21:50:05 10° NE
Cosmos 2278 Rocket 3.8 21:45:46 10° SSE 21:50:03 23° ESE 21:54:21 10° NE
Cosmos 1634 Rocket 4.3 21:44:36 10° NNW 21:50:45 59° W 21:56:09 13° S
Cosmos 304 Rocket 4.1 21:48:20 15° S 21:52:09 54° ESE 21:56:49 10° NE
Cosmos 968 Rocket 3.6 21:53:36 14° SSW 21:58:01 65° ESE 22:03:14 10° NNE
Cosmos 2151 Rocket 3.7 21:57:36 10° N 22:02:03 76° ENE 22:06:15 12° SSE
PSLV R/B 4.3 21:59:00 10° N 22:03:08 47° WNW 22:07:21 10° SW
Okean 2 Rocket 3.4 21:59:38 10° N 22:04:08 67° ENE 22:08:31 10° SSE
Landsat 4 3.3 22:02:38 13° SSE 22:05:10 64° ENE 22:08:02 10° N
IDEFIX/ARIANE 42P 4.4 22:01:26 10° NE 22:05:24 21° E 22:09:18 10° SE
Okean 1 Rocket 3.6 22:01:32 10° N 22:05:57 56° ENE 22:10:20 10° SSE
USA 229 DEB 4.0 21:59:58 10° NW 22:07:09 63° SW 22:15:03 10° SSE
USA 229 4.0 22:00:05 10° NW 22:07:15 64° SW 22:15:09 10° SSE
SL-24 R/B - RUBIN 2 4.3 22:03:04 10° NW 22:07:47 40° SW 22:11:40 12° SSE
Cosmos 1606 3.5 22:06:45 10° NNW 22:09:24 27° W 22:11:23 14° SW
Cosmos 1844 Rocket 3.7 22:04:22 10° WSW 22:09:48 44° NW 22:15:15 10° NNE
Timation 2 Rocket 4.4 22:06:00 13° S 22:11:00 47° ESE 22:16:44 10° NE
Cosmos 1378 Rocket 3.8 22:07:51 14° S 22:11:34 63° E 22:15:55 10° NNE
Cosmos 1340 Rocket 2.7 22:17:20 10° NNW 22:21:12 73° WSW 22:24:37 13° S
Cosmos 1869 3.1 22:17:38 10° NNW 22:21:22 79° W 22:24:36 13° S
H-2A R/B 4.3 22:20:15 10° NE 22:22:22 14° E 22:24:28 10° ESE
Nadezhda 4 Rocket 4.2 22:20:01 11° S 22:25:52 69° E 22:32:08 10° NNE
USA 234 3.9 22:24:53 10° ENE 22:30:56 39° SE 22:36:43 11° SSW
CZ-2C R/B 3.3 22:28:24 10° NNE 22:33:52 68° ESE 22:38:42 12° S
SL-4 R/B 2.2 22:31:38 10° W 22:35:28 42° S 22:39:09 10° ESE
Cosmos 332 Rocket 4.3 22:34:27 12° S 22:38:44 49° ESE 22:43:23 10° NE
Cosmos 158 Rocket 4.0 22:34:23 10° NNW 22:39:26 60° WSW 22:44:18 10° S
Cosmos 1741 Rocket 4.2 22:36:52 10° SW 22:42:05 73° WNW 22:47:26 10° NNE
ATLAS 3B R/B 3.5 22:35:07 10° NW 22:42:18 40° WSW 22:49:15 10° S
Meteor 2-1 Rocket 4.5 22:38:24 10° NNW 22:44:23 83° ENE 22:50:22 10° SSE
Cosmos 1833 Rocket 3.8 22:43:25 10° NW 22:48:02 26° WSW 22:52:21 11° SSW
Cosmos 1455 Rocket 3.3 22:44:46 10° N 22:49:08 70° ENE 22:53:27 10° SSE
Resurs 1-4 Rocket 4.0 22:46:12 10° NE 22:50:20 23° E 22:54:28 10° SE
USA 305 3.0 22:49:25 10° W 22:51:10 16° SW 22:51:25 16° SSW
Cosmos 1461 4.3 22:47:31 10° NW 22:51:24 42° NNE 22:55:18 10° ESE
Cosmos 2026 Rocket 4.3 22:48:10 10° S 22:54:21 64° E 23:00:27 10° NNE
Cosmos 1812 2.2 22:53:45 10° N 22:56:58 83° ENE 23:00:08 10° SSE
Cosmos 371 Rocket 3.9 22:53:47 10° SW 22:58:31 52° NW 23:03:17 10° NNE
Cosmos 773 Rocket 4.2 22:54:37 10° NNW 22:59:51 75° ENE 23:05:04 10° SSE
Cosmos 1570 Rocket 4.1 22:55:45 10° NNW 23:01:06 73° WSW 23:06:24 10° SSE
SeaSat 1 4.3 23:01:48 10° SW 23:04:38 15° WSW 23:07:29 10° WNW
H-2A R/B 3.3 23:02:26 11° SSW 23:05:21 27° W 23:08:32 10° NW
Cosmos 1515 3.5 23:04:31 10° N 23:07:11 53° ENE 23:09:50 10° SSE
USA 307 2.6 23:04:21 10° W 23:08:17 68° S 23:12:09 10° ESE
Cosmos 2084 3.2 23:04:53 10° NW 23:08:53 75° SW 23:12:49 10° SE
SJ 16-02 3.2 23:06:27 10° W 23:09:58 24° NW 23:13:29 10° N
ATLAS 2AS CENTAUR R/B 3.1 23:02:55 10° WSW 23:09:58 68° NNW 23:16:49 10° NE
USA 81 4.1 23:06:37 10° S 23:11:54 85° W 23:17:13 10° N
Cosmos 1674 Rocket 4.0 23:07:46 10° SSW 23:11:57 50° WNW 23:16:13 10° N
Cosmos 2221 Rocket 3.8 23:08:21 10° SSW 23:12:39 65° WNW 23:17:06 10° N
Cosmos 2208 Rocket 4.0 23:07:34 10° NNW 23:12:45 77° WSW 23:17:55 10° SSE
CZ-2D R/B 3.6 23:09:00 10° NNE 23:13:48 31° E 23:18:31 10° SSE
CZ-2C R/B 3.6 23:15:50 10° SSW 23:20:32 33° W 23:25:23 10° NNW
Cosmos 292 Rocket 4.3 23:18:32 10° S 23:23:12 55° ESE 23:27:55 10° NE
SL-19 R/B 4.3 23:17:36 10° NNE 23:23:15 89° ESE 23:28:51 10° SSW
COSMOS 2406 3.3 23:18:44 10° NW 23:24:28 70° WSW 23:30:10 10° SSE
Cosmos 2082 Rocket 2.6 23:19:44 10° NW 23:25:11 48° WSW 23:30:38 10° S
Cosmos 1943 Rocket 2.2 23:20:20 10° SSW 23:25:50 80° ESE 23:31:25 10° NE
ADEOS II 3.7 23:22:08 10° NNE 23:26:40 29° E 23:31:10 10° SSE
Meteor 1-11 4.4 23:24:19 10° SSW 23:30:06 73° WNW 23:35:59 10° NNE
ATLAS 5 CENTAUR R/B 2.7 23:29:31 10° S 23:31:52 20° ESE 23:34:25 10° ENE
Cosmos 2278 Rocket 2.3 23:27:47 10° SW 23:33:28 87° WNW 23:39:12 10° NE
Cosmos 1544 Rocket 4.0 23:29:22 10° N 23:33:40 65° ENE 23:37:56 10° SSE
Cosmos 1025 Rocket 3.7 23:33:53 10° SW 23:37:58 44° WNW 23:42:05 10° N
MOZ.5/SAFIR/RUBIN 5/SL-8 4.0 23:37:10 10° S 23:41:38 51° W 23:46:08 10° NNW
IDEFIX/ARIANE 42P 2.7 23:40:13 10° NNE 23:45:30 81° WNW 23:50:43 10° SSW
Meteor 1-27 4.4 23:42:23 10° NNW 23:48:12 71° W 23:54:00 10° S
